STARLINK-31848, 59784

Orbit data source: Space-Track

STARLINK-31848, 59784 is a payload satellite owned by SpaceX/Seattle (US) in LEO that was launched on Sat, 18 May 2024 UTC via an FALCON 9 launch vehicle from the Air Force Eastern Test Range (AFETR). Payload-class satellites include a variety of spacecraft equipped with specific instruments for various scientific and technological missions. These include communications satellites like Starlink; space stations such as the ISS; scientific satellites like the Hubble; Earth observation satellites from companies like Planet Labs, Umbra, and HawkEye 360; GPS; miniature CubeSats for education and research; and military/defense satellites.

Loading next visibility...
Identifier
59784, 2024-093C
Orbit
LEO
Last TLE update
8 hours ago
Origin
Manufacturer
SpaceX/Seattle
Mission
Operational spacecraft
Bus & Motor
STARLINK V2M, Unknown motor
Mass
730 kg wet, ~700 kg dry
Launch date (UTC)
2024-05-18 (11 months ago)
Launch vehicle
FALCON 9
Launch site
Air Force Eastern Test Range (AFETR)
Object type
Payload
Rocket body
Debris
Shape & HBR
Unknown
Radar Cross Section
Large (>1 m²)

Expand to show TLE details & history

TLE from 8 hours ago
0 STARLINK-31848
1 59784U 24093C   25115.50591352  .00006007  00000-0  22771-3 0  9990
2 59784  42.9993 202.3510 0000785 331.5169  28.5639 15.27568735 54070
Epoch: 2025-04-25T12:08Z
Definitive object data (Epoch: 2025-04-25T12:08:30.928Z)
Latitude
-0.00005°
Longitude
166.46006°
Altitude
482.385 km
Speed
7.626 km/s
True Right ascension
13h 29m 24s
True Declination
0° 00' 00"
Sunlit
Object was in full shadow at TLE epoch
Visualization TLE readout
Latitude
-6.45682°
Longitude
157.69042°
Altitude
483.395 km
Speed
7.625 km/s
Apparent Right ascension
13h 51m 49s
Apparent Declination
-23° 21' 29"
Sunlit
Object is in full shadow
Visualization observer readout
Local Sidereal Time
03:12:41
Azimuth
51.905° ENE
Elevation
-66.228°
Doppler factor
1
Orbital elements
Apogee altitude
485.567 km
Perigee altitude
484.489 km
Semi-major axis
6,863.165 km
Eccentricity
0.0000785
Inclination
42.9993°
RAAN
202.351°
Arg. of periapsis
331.5169°
True anomaly
28.5682°
Mean anomaly
28.5639°
Eccentric anomaly
28.56605°
Mean motion
3.8173 °/min
BSTAR
0.00022771
Orbital period
94.31 mins
Loading maneuver chart data...
Loading SW <> Apogee altitude chart data...
Loading historical data...
Loading historical data...
Loading historical data...
Loading historical data...
Loading historical data...
Loading historical data...
Loading historical data...

STARLINK-31848 Visibility forecast

Observer location: undefined°, undefined°

Span
Click to sort rows by Start time (UTC) header in descending order
Start Az.
Max El. time (UTC)
Max El. Az.
Max El.
End time (UTC)
End Az.
5 mins2025-04-26 08:44:49.889Z204.321° SW2025-04-26 08:46:49.889Z163.264° S26.794°2025-04-26 08:49:49.889Z91.864° ESE
5 mins2025-04-26 10:23:49.889Z262.819° W2025-04-26 10:25:49.889Z311.951° NW43.408°2025-04-26 10:28:49.889Z69.168° E
6 mins2025-04-26 12:02:49.889Z291.894° WNW2025-04-26 12:04:49.889Z337.847° N37.123°2025-04-26 12:08:49.889Z80.697° E
6 mins2025-04-26 13:41:49.889Z285.669° WNW2025-04-26 13:43:49.889Z268.57° W41.96°2025-04-26 13:47:49.889Z114.37° SE
|